Regional Weather Roundup
Issued by NWS

Home | Current Version | Previous Version | Text Only | Print | Product List | Glossary Off
Versions: 1 2 3 4 5 6 7 8 9 10 11 12 13 14 15 16 17 18 19 20 21 22 23 24 25 26 27 28 29 30 31 32 33 34 35 36 37 38 39 40 41 42 43 44 45 46 47 48 49 50

000
ASUS43 KMKX 220700
RWRWI

WISCONSIN REGIONAL WEATHER ROUNDUP
NATIONAL WEATHER SERVICE MILWAUKEE/SULLIVAN WI
200 AM CDT TUE JUL 22 2014

NOTE: "FAIR" INDICATES FEW OR NO CLOUDS BELOW 12,000 FEET WITH NO
SIGNIFICANT WEATHER AND/OR OBSTRUCTIONS TO VISIBILITY.

WIZ001-002-006>008-014>016-023>028-220800-
NORTHWEST WISCONSIN

CITY           SKY/WX    TMP DP  RH WIND       PRES   REMARKS
SUPERIOR ARPT  HVY RAIN  69  66  89 W14G29    29.86R
ASHLAND        CLOUDY    79  70  74 SW10      29.85R HX  82
HAYWARD        CLOUDY    79  71  76 SW12      29.88R HX  82
SIREN          CLOUDY    80  71  74 S5        29.83R HX  83
RICE LAKE      CLOUDY    76  69  78 S10       29.86S
LADYSMITH      CLOUDY    76  69  77 S10G18    29.89S
EAU CLAIRE     NOT AVBL
MENOMONIE      CLOUDY    80  71  74 SE14      29.85F HX  83
NEW RICHMOND   CLOUDY    78  71  77 S12       29.82F HX  81
OSCEOLA        CLOUDY    80  73  79 S10       29.84R HX  84
$$

WIZ003>005-009-010-017-018-220800-
NORTH CENTRAL WISCONSIN

CITY           SKY/WX    TMP DP  RH WIND       PRES   REMARKS
WOODRUFF       PTCLDY    74  68  80 S12       29.92S
RHINELANDER    MOCLDY    73  66  78 SW8       29.95S
EAGLE RIVER    CLEAR     72  65  78 S5        29.93F
LAND O LAKES   CLEAR     73  66  79 S7        29.93F
PHILLIPS       CLOUDY    73  68  82 S10       29.88F
TOMAHAWK       MOCLDY    72  66  83 CALM      29.93S
MEDFORD        CLOUDY    73  67  82 S12       29.93F
MERRILL        PTCLDY    74  68  81 SW9G18    29.94S
$$

WIZ029-030-035-036-043>047-220800-
CENTRAL WISCONSIN

CITY           SKY/WX    TMP DP  RH WIND       PRES   REMARKS
WAUSAU         MOCLDY    74  68  81 S10       29.93F
MOSINEE        PTCLDY    72  68  88 S10       29.96F
MARSHFIELD     MOCLDY    73  68  84 S9        29.95F
STEVENS POINT  PTCLDY    72  66  82 S12       29.96F
WAUPACA        PTCLDY    73  69  86 S7        29.96F
WAUTOMA        NOT AVBL
WISC RAPIDS    PTCLDY    74  68  81 S9        29.96F
CAMP DOUGLAS   NOT AVBL
$$

WIZ011>013-019>022-031-037>040-048>050-220800-
NORTHEAST WISCONSIN

CITY           SKY/WX    TMP DP  RH WIND       PRES   REMARKS
ANTIGO         CLEAR     70  67  90 S12       29.95F
STURGEON BAY   CLEAR     66  61  82 S8        29.98F
GREEN BAY      CLEAR     71  65  81 S8        29.97F
MANITOWOC      NOT AVBL
APPLETON       CLEAR     73  66  78 S10       29.98F
CLINTONVILLE   PTCLDY    72  68  88 S8        29.95F
OSHKOSH        MOCLDY    73  68  84 S13       29.98F
$$

WIZ032>034-041-042-053>061-220800-
SOUTHWEST WISCONSIN

CITY           SKY/WX    TMP DP  RH WIND       PRES   REMARKS
LA CROSSE      CLOUDY    80  69  69 S12       29.90F HX  83
SPARTA         MOCLDY    77  66  69 S14G22    29.93F
VIROQUA        CLOUDY    75  68  79 S10G18    29.96F
BOSCOBEL       CLOUDY    78  68  71 VRB7      29.96F HX  80
PRAIRIE DU CHI CLOUDY    78  66  67 SE5       29.95S HX  80
PLATTEVILLE    FAIR      74  69  86 S10       30.01S
$$

WIZ056-057-062-063-064-067-068-220800-
SOUTH CENTRAL WISCONSIN

CITY           SKY/WX    TMP DP  RH WIND       PRES   REMARKS
BARABOO/DELLS  CLEAR     74  66  76 S10       29.98S
LONE ROCK      NOT AVBL
WATERTOWN      CLEAR     71  67  89 S7        30.02S
MADISON        PTCLDY    75  68  78 S9        30.01S
MIDDLETON      FAIR      75  68  79 SW8       30.01S
MONROE         CLEAR     72  68  88 S13       30.02S
JANESVILLE     MOCLDY    73  64  73 S10       30.01F
$$

WIZ051-052-058>065-066-070>072-220800-
SOUTHEAST WISCONSIN

CITY           SKY/WX    TMP DP  RH WIND       PRES   REMARKS
MILWAUKEE      PTCLDY    73  65  75 S9        30.02F
WAUKESHA       CLEAR     68  63  83 S5        30.04F
MILWAUKEE/TIMM CLEAR     72  63  73 S6        30.04S
RACINE         CLEAR     71  65  81 SW7       30.06R
BURLINGTON     CLEAR     65  63  94 S5        30.05S
KENOSHA        CLEAR     70  65  84 S6        30.05S
FOND DU LAC    PTCLDY    74  67  78 S12       30.00F
SHEBOYGAN      CLEAR     68  64  87 S6        30.01F
WEST BEND      CLEAR     70  63  78 S5        30.02F
JUNEAU         MOCLDY    72  53  51 S10       30.02F
$$

LSZ147-162-220800-
LAKE SUPERIOR

STATION/POSITION TIME  TEMP    WIND        PRES    WAVE
                       AIR SEA DIR/SP/G            HT/PER
                 (UTC) (F)     (DEG/KT/KT) (MB)    (FT/S)
W MID LAKE BUOY  0550   55 40  150/ 12/ 12 1009.4F   0
PORT WING        0620   81     200/ 10/ 17 1009.1S
SAXON HARBOR     0600          190/  7/ 15 1009.5F
$$

LMZ867-665-643>646-220800-
LAKE MICHIGAN

STATION/POSITION TIME  TEMP    WIND        PRES    WAVE
                       AIR SEA DIR/SP/G            HT/PER
                 (UTC) (F)     (DEG/KT/KT) (MB)    (FT/S)
N MID LAKE BUOY  0550   62 56  200/ 12/ 14 1015.3F   2/ 5
NORTHPORT PIER   0600   68     170/  6/ 12 1015.2F
KEWAUNEE LAKESHO 0600   56     160/  5/  7 1016.6S
SHEBOYGAN LAKESH 0600   68     190/ 13/ 13 1016.4R
PORT WASHINGTON  0640   62     200/  7/ 10 1016.9S
ATWATER BUOY     0600   58     140/  8     1017.7R
MILWAUKEE LAKESH 0600   72     200/  8/ 10   N/A
S MID LAKE BUOY  0550   72 69  180/ 12/ 12 1017.4F   1
KENOSHA   LAKESH 0600   71     190/  6/  6   N/A
$$

TC  - TEMPERATURE IN CELSIUS
VSB - VISIBILITY IN STATUTE MILES
WCI - WIND CHILL INDEX
HX  - HEAT INDEX



USA.gov is the U.S. government's official web portal to all federal, state and local government web resources and services.